Regional Weather Roundup
Issued by NWS

Home | Current Version | Previous Version | Graphics & Text | Print | Product List | Glossary On
Versions: 1 2 3 4 5 6 7 8 9 10 11 12 13 14 15 16 17 18 19 20 21 22 23 24 25 26 27 28 29 30 31 32 33 34 35 36 37 38 39 40 41 42 43 44 45 46 47 48 49 50
076
ASUS45 KBOI 281310
RWRID

IDAHO REGIONAL WEATHER ROUNDUP
NATIONAL WEATHER SERVICE BOISE ID
700 AM MDT SUN MAY 28 2017

NOTE: "FAIR" INDICATES FEW OR NO CLOUDS BELOW 12000 FEET
WITH NO SIGNIFICANT WEATHER AND/OR OBSTRUCTIONS TO VISIBILITY

IDZ012-014-281400-
SOUTHWEST IDAHO


CITY           SKY/WX    TMP DP  RH WIND       PRES   REMARKS
BOISE          CLEAR     56  40  55 SE5       30.19R
CALDWELL       CLEAR     47  40  76 SE3       30.19R
MOUNTAIN HOME  CLEAR     48  44  85 E6        30.20R
$$

IDZ016-017-281400-
SOUTHCENTRAL IDAHO


CITY           SKY/WX    TMP DP  RH WIND       PRES   REMARKS
BURLEY         CLEAR     44  42  93 CALM      30.25R
JEROME         CLEAR     51  39  63 NE12      30.24R
TWIN FALLS     CLEAR     44  41  89 CALM      30.25R
$$

IDZ019>023-281400-
SOUTHEAST IDAHO


CITY           SKY/WX    TMP DP  RH WIND       PRES   REMARKS
IDAHO FALLS    SUNNY     41  39  93 N5        30.30R
POCATELLO      CLEAR     40  39  97 CALM      30.29R
REXBURG        SUNNY     41  37  86 NE3       30.30R
$$

IDZ006-010-011-018-031-032-281400-
CENTRAL IDAHO MOUNTAINS


CITY           SKY/WX    TMP DP  RH WIND       PRES   REMARKS
MCCALL         CLEAR     40  35  83 CALM      30.27R
HAILEY         CLEAR     45  39  81 NW12      30.32S
STANLEY          N/A     31  29  92 CALM      30.39R
SALMON         CLEAR     41  37  87 CALM      30.30R
CHALLIS        CLEAR     43  35  73 NW3       30.33R
$$

IDZ002-004-006-007-026-281400-
NORTHERN IDAHO


CITY           SKY/WX    TMP DP  RH WIND       PRES   REMARKS
LEWISTON       CLEAR     57  47  69 E6        30.15R
LOWELL           N/A     47  44  90 CALM      30.25R
COEUR D`ALENE  CLEAR     50  47  89 NE3       30.19R
MULLAN PASS    CLEAR     53  35  50 CALM      30.30R
$$




USA.gov is the U.S. government's official web portal to all federal, state and local government web resources and services.